Tracking 22459 objects as of 3-Mar-2021
HD Live streaming from Space Station
objects crossing your sky now

SL-12 DEB

Track SL-12 DEB now!
10-day predictions


NORAD ID: 27805
Int'l Code: 1992-047L
Perigee: 420.1 km
Apogee: 12,330.5 km
Inclination: 65.3 °
Period: 238.7 minutes
Semi major axis: 12746 km
RCS: 0.048 m2 (small)
Launch date: July 30, 1992
Source: Commonwealth of Independent States (former USSR) (CIS)
Launch site: TYURATAM MISSILE AND SPACE COMPLEX (TTMTR)

Note: This is SATELLITE DEBRIS
aabbcc
Your satellite tracking list
Your tracking list is empty




NASA's NSSDC Master Catalog

Two Line Element Set (TLE):
1 27805U 92047L   21057.09548861  .00000173  00000-0  10997-3 0  9990
2 27805  65.2607  16.6107 4672113 239.7694  66.1042  6.03291270400525
Source of the keplerian elements: AFSPC